Time,TemperatureF,DewpointF,PressureIn,WindDirection,WindDirectionDegrees,WindSpeedMPH,WindSpeedGustMPH,Humidity,HourlyPrecipIn,Conditions,Clouds,dailyrainin,SoftwareType,DateUTC
2013-01-30 00:02:00,42.0,41.0,29.38,WNW,288,6.0,-999.0,98,-99.99,,,-99.99,,2013-01-30 06:02:00,
2013-01-30 00:11:00,42.0,41.0,29.38,WNW,288,6.0,-999.0,98,-99.99,,,-99.99,,2013-01-30 06:11:00,
2013-01-30 00:21:00,42.0,41.0,29.40,WNW,288,7.0,-999.0,98,-99.99,,,-99.99,,2013-01-30 06:21:00,
2013-01-30 00:32:00,42.0,41.0,29.39,WNW,286,6.0,-999.0,98,-99.99,,,-99.99,,2013-01-30 06:32:00,
2013-01-30 00:42:00,42.0,41.0,29.39,WNW,286,6.0,-999.0,98,-99.99,,,-99.99,,2013-01-30 06:42:00,
2013-01-30 00:51:00,42.0,41.0,29.39,WNW,286,6.0,-999.0,98,-99.99,,,-99.99,,2013-01-30 06:51:00,
2013-01-30 01:02:00,41.0,40.0,29.39,West,271,6.0,-999.0,98,-99.99,,,-99.99,,2013-01-30 07:02:00,
2013-01-30 01:11:00,41.0,40.0,29.39,West,271,6.0,-999.0,98,-99.99,,,-99.99,,2013-01-30 07:11:00,
2013-01-30 01:21:00,40.0,39.0,29.40,WNW,295,10.0,-999.0,98,-99.99,,,-99.99,,2013-01-30 07:21:00,
2013-01-30 01:32:00,39.0,38.0,29.39,NW,324,7.0,-999.0,98,-99.99,,,-99.99,,2013-01-30 07:32:00,
2013-01-30 01:41:00,39.0,38.0,29.39,NW,324,7.0,-999.0,98,-99.99,,,-99.99,,2013-01-30 07:41:00,
2013-01-30 01:52:00,38.0,37.0,29.39,NNW,333,5.0,-999.0,98,-99.99,,,-99.99,,2013-01-30 07:52:00,
2013-01-30 02:01:00,38.0,37.0,29.39,NNW,327,5.0,-999.0,98,-99.99,,,-99.99,,2013-01-30 08:01:00,
2013-01-30 02:11:00,38.0,37.0,29.39,NNW,327,5.0,-999.0,98,-99.99,,,-99.99,,2013-01-30 08:11:00,
2013-01-30 02:21:00,38.0,37.0,29.39,NW,325,2.0,-999.0,98,-99.99,,,-99.99,,2013-01-30 08:21:00,
2013-01-30 02:32:00,38.0,37.0,29.39,NNW,340,1.0,-999.0,98,-99.99,,,-99.99,,2013-01-30 08:32:00,
2013-01-30 02:42:00,38.0,37.0,29.39,NNW,340,1.0,-999.0,98,-99.99,,,-99.99,,2013-01-30 08:42:00,
2013-01-30 02:52:00,38.0,37.0,29.38,NNW,348,2.0,-999.0,98,-99.99,,,-99.99,,2013-01-30 08:52:00,
2013-01-30 03:01:00,37.0,36.0,29.39,NW,319,0.0,-999.0,98,-99.99,,,-99.99,,2013-01-30 09:01:00,
2013-01-30 03:11:00,37.0,36.0,29.39,NW,319,0.0,-999.0,98,-99.99,,,-99.99,,2013-01-30 09:11:00,
2013-01-30 03:21:00,37.0,36.0,29.39,West,278,2.0,-999.0,98,-99.99,,,-99.99,,2013-01-30 09:21:00,
2013-01-30 03:32:00,37.0,36.0,29.39,West,278,2.0,-999.0,98,-99.99,,,-99.99,,2013-01-30 09:32:00,
2013-01-30 03:42:00,37.0,36.0,29.39,West,278,2.0,-999.0,98,-99.99,,,-99.99,,2013-01-30 09:42:00,
2013-01-30 03:51:00,37.0,36.0,29.44,West,267,1.0,-999.0,98,-99.99,,,-99.99,,2013-01-30 09:51:00,
2013-01-30 04:01:00,37.0,36.0,29.38,West,267,0.0,-999.0,98,-99.99,,,-99.99,,2013-01-30 10:01:00,
2013-01-30 04:11:00,37.0,36.0,29.38,West,267,0.0,-999.0,98,-99.99,,,-99.99,,2013-01-30 10:11:00,
2013-01-30 04:21:00,36.0,35.0,29.36,NNW,329,2.0,-999.0,98,-99.99,,,-99.99,,2013-01-30 10:21:00,
2013-01-30 04:32:00,36.0,35.0,29.32,NNW,342,1.0,-999.0,98,-99.99,,,-99.99,,2013-01-30 10:32:00,
2013-01-30 04:41:00,36.0,35.0,29.32,NNW,342,1.0,-999.0,98,-99.99,,,-99.99,,2013-01-30 10:41:00,
2013-01-30 04:52:00,36.0,35.0,29.32,NE,38,1.0,-999.0,98,-99.99,,,-99.99,,2013-01-30 10:52:00,
2013-01-30 05:02:00,36.0,35.0,29.33,NNW,341,1.0,-999.0,98,-99.99,,,-99.99,,2013-01-30 11:02:00,
2013-01-30 05:11:00,36.0,35.0,29.33,NNW,341,1.0,-999.0,98,-99.99,,,-99.99,,2013-01-30 11:11:00,
2013-01-30 05:22:00,36.0,35.0,29.33,NNW,341,0.0,-999.0,98,-99.99,,,-99.99,,2013-01-30 11:22:00,
2013-01-30 05:32:00,36.0,35.0,29.31,NNW,341,0.0,-999.0,98,-99.99,,,-99.99,,2013-01-30 11:32:00,
2013-01-30 05:42:00,36.0,35.0,29.31,NNW,341,0.0,-999.0,98,-99.99,,,-99.99,,2013-01-30 11:42:00,
2013-01-30 05:52:00,36.0,35.0,29.31,NNW,341,0.0,-999.0,98,-99.99,,,-99.99,,2013-01-30 11:52:00,
2013-01-30 06:02:00,36.0,35.0,29.33,NNW,342,0.0,-999.0,98,-99.99,,,-99.99,,2013-01-30 12:02:00,
2013-01-30 06:12:00,36.0,35.0,29.33,NNW,342,0.0,-999.0,98,-99.99,,,-99.99,,2013-01-30 12:12:00,
2013-01-30 06:22:00,36.0,35.0,29.31,NNW,342,0.0,-999.0,98,-99.99,,,-99.99,,2013-01-30 12:22:00,
2013-01-30 06:33:00,36.0,35.0,29.33,North,360,0.0,-999.0,98,-99.99,,,-99.99,,2013-01-30 12:33:00,
2013-01-30 06:42:00,36.0,35.0,29.33,North,360,0.0,-999.0,98,-99.99,,,-99.99,,2013-01-30 12:42:00,
2013-01-30 07:03:00,36.0,35.0,29.30,NE,46,2.0,-999.0,98,-99.99,,,-99.99,,2013-01-30 13:03:00,
2013-01-30 07:12:00,36.0,35.0,29.30,NE,46,2.0,-999.0,98,-99.99,,,-99.99,,2013-01-30 13:12:00,
2013-01-30 07:23:00,36.0,35.0,29.30,NE,46,1.0,-999.0,98,-99.99,,,-99.99,,2013-01-30 13:23:00,
2013-01-30 07:33:00,36.0,35.0,29.28,ENE,71,4.0,-999.0,98,-99.99,,,-99.99,,2013-01-30 13:33:00,
2013-01-30 07:42:00,36.0,35.0,29.28,ENE,71,4.0,-999.0,98,-99.99,,,-99.99,,2013-01-30 13:42:00,
2013-01-30 07:52:00,36.0,35.0,29.29,ENE,74,4.0,-999.0,98,-99.99,,,-99.99,,2013-01-30 13:52:00,
2013-01-30 08:02:00,36.0,35.0,29.26,ENE,77,4.0,-999.0,98,-99.99,,,-99.99,,2013-01-30 14:02:00,
2013-01-30 08:12:00,36.0,35.0,29.26,ENE,77,4.0,-999.0,98,-99.99,,,-99.99,,2013-01-30 14:12:00,
2013-01-30 08:22:00,36.0,35.0,29.26,East,92,5.0,-999.0,98,-99.99,,,-99.99,,2013-01-30 14:22:00,
2013-01-30 08:33:00,36.0,35.0,29.25,East,87,3.0,-999.0,98,-99.99,,,-99.99,,2013-01-30 14:33:00,
2013-01-30 08:42:00,36.0,35.0,29.25,East,87,3.0,-999.0,98,-99.99,,,-99.99,,2013-01-30 14:42:00,
2013-01-30 08:52:00,36.0,35.0,29.24,East,89,4.0,-999.0,98,-99.99,,,-99.99,,2013-01-30 14:52:00,
2013-01-30 09:03:00,36.0,35.0,29.24,East,86,3.0,-999.0,98,-99.99,,,-99.99,,2013-01-30 15:03:00,
2013-01-30 09:12:00,36.0,35.0,29.24,East,86,3.0,-999.0,98,-99.99,,,-99.99,,2013-01-30 15:12:00,
2013-01-30 09:23:00,37.0,36.0,29.27,SSE,157,3.0,-999.0,98,-99.99,,,-99.99,,2013-01-30 15:23:00,
2013-01-30 09:33:00,36.0,35.0,29.29,West,274,12.0,-999.0,98,-99.99,,,-99.99,,2013-01-30 15:33:00,
2013-01-30 09:43:00,36.0,35.0,29.29,West,274,12.0,-999.0,98,-99.99,,,-99.99,,2013-01-30 15:43:00,
2013-01-30 09:53:00,35.0,34.0,29.28,WSW,258,9.0,-999.0,98,-99.99,,,-99.99,,2013-01-30 15:53:00,
2013-01-30 10:03:00,34.0,34.0,29.27,WNW,284,8.0,-999.0,98,-99.99,,,-99.99,,2013-01-30 16:03:00,
2013-01-30 10:12:00,34.0,34.0,29.27,WNW,284,8.0,-999.0,98,-99.99,,,-99.99,,2013-01-30 16:12:00,
2013-01-30 10:23:00,34.0,34.0,29.25,West,275,9.0,-999.0,98,-99.99,,,-99.99,,2013-01-30 16:23:00,
2013-01-30 10:32:00,34.0,34.0,29.26,West,275,8.0,-999.0,98,-99.99,,,-99.99,,2013-01-30 16:32:00,
2013-01-30 10:42:00,34.0,34.0,29.26,West,275,8.0,-999.0,98,-99.99,,,-99.99,,2013-01-30 16:42:00,
2013-01-30 10:52:00,34.0,34.0,29.26,West,275,8.0,-999.0,98,-99.99,,,-99.99,,2013-01-30 16:52:00,
2013-01-30 11:02:00,35.0,34.0,29.25,NW,321,9.0,-999.0,98,-99.99,,,-99.99,,2013-01-30 17:02:00,
2013-01-30 11:12:00,35.0,34.0,29.25,NW,321,9.0,-999.0,98,-99.99,,,-99.99,,2013-01-30 17:12:00,
2013-01-30 11:22:00,35.0,34.0,29.28,NW,309,7.0,-999.0,98,-99.99,,,-99.99,,2013-01-30 17:22:00,
2013-01-30 11:33:00,35.0,34.0,29.28,NW,309,7.0,-999.0,98,-99.99,,,-99.99,,2013-01-30 17:33:00,
2013-01-30 11:42:00,35.0,34.0,29.28,NW,309,7.0,-999.0,98,-99.99,,,-99.99,,2013-01-30 17:42:00,
2013-01-30 11:53:00,35.0,34.0,29.28,NW,324,7.0,-999.0,96,-99.99,,,-99.99,,2013-01-30 17:53:00,
2013-01-30 12:02:00,35.0,34.0,29.29,West,266,9.0,-999.0,96,-99.99,,,-99.99,,2013-01-30 18:02:00,
2013-01-30 12:12:00,35.0,34.0,29.29,West,266,9.0,-999.0,96,-99.99,,,-99.99,,2013-01-30 18:12:00,
2013-01-30 12:22:00,34.0,33.0,29.28,WSW,256,9.0,-999.0,95,-99.99,,,-99.99,,2013-01-30 18:22:00,
2013-01-30 12:33:00,34.0,33.0,29.29,WNW,297,7.0,-999.0,95,-99.99,,,-99.99,,2013-01-30 18:33:00,
2013-01-30 12:42:00,34.0,33.0,29.29,WNW,297,7.0,-999.0,95,-99.99,,,-99.99,,2013-01-30 18:42:00,
2013-01-30 12:52:00,33.0,31.0,29.29,NW,312,10.0,-999.0,94,-99.99,,,-99.99,,2013-01-30 18:52:00,
2013-01-30 13:02:00,32.0,31.0,29.31,NW,304,11.0,-999.0,95,-99.99,,,-99.99,,2013-01-30 19:02:00,
2013-01-30 13:12:00,32.0,31.0,29.31,NW,304,11.0,-999.0,95,-99.99,,,-99.99,,2013-01-30 19:12:00,
2013-01-30 13:22:00,31.0,30.0,29.31,WNW,289,10.0,-999.0,95,-99.99,,,-99.99,,2013-01-30 19:22:00,
2013-01-30 13:32:00,31.0,29.0,29.31,WNW,297,11.0,-999.0,94,-99.99,,,-99.99,,2013-01-30 19:32:00,
2013-01-30 13:43:00,31.0,29.0,29.31,WNW,297,11.0,-999.0,94,-99.99,,,-99.99,,2013-01-30 19:43:00,
2013-01-30 13:52:00,31.0,29.0,29.32,West,262,10.0,-999.0,93,-99.99,,,-99.99,,2013-01-30 19:52:00,
2013-01-30 14:03:00,31.0,29.0,29.33,WNW,299,4.0,-999.0,94,-99.99,,,-99.99,,2013-01-30 20:03:00,
2013-01-30 14:12:00,31.0,29.0,29.33,WNW,299,4.0,-999.0,94,-99.99,,,-99.99,,2013-01-30 20:12:00,
2013-01-30 14:22:00,30.0,29.0,29.34,West,265,0.0,-999.0,95,-99.99,,,-99.99,,2013-01-30 20:22:00,
2013-01-30 14:33:00,30.0,28.0,29.36,West,271,0.0,-999.0,94,-99.99,,,-99.99,,2013-01-30 20:33:00,
2013-01-30 14:42:00,30.0,28.0,29.36,West,271,0.0,-999.0,94,-99.99,,,-99.99,,2013-01-30 20:42:00,
2013-01-30 14:52:00,30.0,29.0,29.36,WNW,285,0.0,-999.0,95,-99.99,,,-99.99,,2013-01-30 20:52:00,
2013-01-30 15:03:00,30.0,29.0,29.37,WNW,290,0.0,-999.0,95,-99.99,,,-99.99,,2013-01-30 21:03:00,
2013-01-30 15:12:00,30.0,29.0,29.37,WNW,290,0.0,-999.0,95,-99.99,,,-99.99,,2013-01-30 21:12:00,
2013-01-30 15:23:00,29.0,28.0,29.38,West,260,0.0,-999.0,96,-99.99,,,-99.99,,2013-01-30 21:23:00,
2013-01-30 15:32:00,28.0,27.0,29.39,West,264,0.0,-999.0,96,-99.99,,,-99.99,,2013-01-30 21:32:00,
2013-01-30 15:42:00,28.0,27.0,29.39,West,264,0.0,-999.0,96,-99.99,,,-99.99,,2013-01-30 21:42:00,
2013-01-30 15:52:00,28.0,27.0,29.40,WSW,257,0.0,-999.0,96,-99.99,,,-99.99,,2013-01-30 21:52:00,
2013-01-30 16:03:00,27.0,26.0,29.42,WSW,246,0.0,-999.0,96,-99.99,,,-99.99,,2013-01-30 22:03:00,
2013-01-30 16:12:00,27.0,26.0,29.42,WSW,246,0.0,-999.0,96,-99.99,,,-99.99,,2013-01-30 22:12:00,
2013-01-30 16:22:00,26.0,25.0,29.44,WNW,286,0.0,-999.0,96,-99.99,,,-99.99,,2013-01-30 22:22:00,
2013-01-30 16:32:00,26.0,25.0,29.45,West,279,0.0,-999.0,96,-99.99,,,-99.99,,2013-01-30 22:32:00,
2013-01-30 16:42:00,26.0,25.0,29.45,West,279,0.0,-999.0,96,-99.99,,,-99.99,,2013-01-30 22:42:00,
2013-01-30 16:52:00,25.0,24.0,29.47,West,276,0.0,-999.0,96,-99.99,,,-99.99,,2013-01-30 22:52:00,
2013-01-30 17:02:00,25.0,24.0,29.47,West,276,0.0,-999.0,96,-99.99,,,-99.99,,2013-01-30 23:02:00,
2013-01-30 17:12:00,25.0,24.0,29.47,West,276,0.0,-999.0,96,-99.99,,,-99.99,,2013-01-30 23:12:00,
2013-01-30 17:22:00,25.0,24.0,29.49,West,269,0.0,-999.0,95,-99.99,,,-99.99,,2013-01-30 23:22:00,
2013-01-30 17:32:00,25.0,24.0,29.50,WNW,286,0.0,-999.0,95,-99.99,,,-99.99,,2013-01-30 23:32:00,
2013-01-30 17:42:00,25.0,24.0,29.50,WNW,286,0.0,-999.0,95,-99.99,,,-99.99,,2013-01-30 23:42:00,
2013-01-30 17:52:00,24.0,22.0,29.52,WNW,285,0.0,-999.0,93,-99.99,,,-99.99,,2013-01-30 23:52:00,
2013-01-30 18:02:00,24.0,22.0,29.52,WNW,303,0.0,-999.0,93,-99.99,,,-99.99,,2013-01-31 00:02:00,
2013-01-30 18:11:00,24.0,22.0,29.52,WNW,303,0.0,-999.0,93,-99.99,,,-99.99,,2013-01-31 00:11:00,
2013-01-30 18:22:00,24.0,22.0,29.54,WSW,258,0.0,-999.0,92,-99.99,,,-99.99,,2013-01-31 00:22:00,
2013-01-30 18:32:00,23.0,21.0,29.55,West,269,0.0,-999.0,93,-99.99,,,-99.99,,2013-01-31 00:32:00,
2013-01-30 18:42:00,23.0,21.0,29.55,West,269,0.0,-999.0,93,-99.99,,,-99.99,,2013-01-31 00:42:00,
2013-01-30 18:52:00,23.0,21.0,29.56,WSW,257,0.0,-999.0,93,-99.99,,,-99.99,,2013-01-31 00:52:00,
2013-01-30 19:02:00,23.0,21.0,29.57,West,262,0.0,-999.0,91,-99.99,,,-99.99,,2013-01-31 01:02:00,
2013-01-30 19:11:00,23.0,21.0,29.57,West,262,0.0,-999.0,91,-99.99,,,-99.99,,2013-01-31 01:11:00,
2013-01-30 19:21:00,22.0,20.0,29.58,WNW,286,0.0,-999.0,91,-99.99,,,-99.99,,2013-01-31 01:21:00,
2013-01-30 19:32:00,22.0,20.0,29.59,NW,312,0.0,-999.0,90,-99.99,,,-99.99,,2013-01-31 01:32:00,
2013-01-30 19:42:00,22.0,20.0,29.59,NW,312,0.0,-999.0,90,-99.99,,,-99.99,,2013-01-31 01:42:00,
2013-01-30 19:52:00,22.0,19.0,29.60,West,259,0.0,-999.0,88,-99.99,,,-99.99,,2013-01-31 01:52:00,
2013-01-30 20:01:00,21.0,18.0,29.61,West,259,0.0,-999.0,87,-99.99,,,-99.99,,2013-01-31 02:01:00,
2013-01-30 20:11:00,21.0,18.0,29.61,West,259,0.0,-999.0,87,-99.99,,,-99.99,,2013-01-31 02:11:00,
2013-01-30 20:21:00,21.0,18.0,29.62,West,266,0.0,-999.0,87,-99.99,,,-99.99,,2013-01-31 02:21:00,
2013-01-30 20:32:00,20.0,17.0,29.62,WNW,283,0.0,-999.0,87,-99.99,,,-99.99,,2013-01-31 02:32:00,
2013-01-30 20:41:00,20.0,17.0,29.62,WNW,283,0.0,-999.0,87,-99.99,,,-99.99,,2013-01-31 02:41:00,
2013-01-30 20:52:00,20.0,17.0,29.62,WNW,283,0.0,-999.0,87,-99.99,,,-99.99,,2013-01-31 02:52:00,
2013-01-30 21:03:00,19.0,16.0,29.64,WNW,292,0.0,-999.0,88,-99.99,,,-99.99,,2013-01-31 03:03:00,
2013-01-30 21:11:00,19.0,16.0,29.64,WNW,292,0.0,-999.0,88,-99.99,,,-99.99,,2013-01-31 03:11:00,
2013-01-30 21:21:00,19.0,16.0,29.65,West,274,0.0,-999.0,87,-99.99,,,-99.99,,2013-01-31 03:21:00,
2013-01-30 21:32:00,19.0,16.0,29.66,WNW,287,0.0,-999.0,86,-99.99,,,-99.99,,2013-01-31 03:32:00,
2013-01-30 21:41:00,19.0,16.0,29.66,WNW,287,0.0,-999.0,86,-99.99,,,-99.99,,2013-01-31 03:41:00,
2013-01-30 21:52:00,20.0,16.0,29.67,WNW,284,0.0,-999.0,85,-99.99,,,-99.99,,2013-01-31 03:52:00,
2013-01-30 22:02:00,19.0,15.0,29.67,WSW,256,0.0,-999.0,85,-99.99,,,-99.99,,2013-01-31 04:02:00,
2013-01-30 22:11:00,19.0,15.0,29.67,WSW,256,0.0,-999.0,85,-99.99,,,-99.99,,2013-01-31 04:11:00,
2013-01-30 22:22:00,19.0,15.0,29.68,West,266,0.0,-999.0,84,-99.99,,,-99.99,,2013-01-31 04:22:00,
2013-01-30 22:31:00,19.0,15.0,29.68,West,266,0.0,-999.0,84,-99.99,,,-99.99,,2013-01-31 04:31:00,
2013-01-30 22:41:00,19.0,15.0,29.68,West,266,0.0,-999.0,84,-99.99,,,-99.99,,2013-01-31 04:41:00,
2013-01-30 22:52:00,19.0,15.0,29.70,WNW,284,0.0,-999.0,83,-99.99,,,-99.99,,2013-01-31 04:52:00,
2013-01-30 23:03:00,19.0,15.0,29.70,West,267,0.0,-999.0,83,-99.99,,,-99.99,,2013-01-31 05:03:00,
2013-01-30 23:11:00,19.0,15.0,29.70,West,267,0.0,-999.0,83,-99.99,,,-99.99,,2013-01-31 05:11:00,
2013-01-30 23:22:00,18.0,13.0,29.71,West,276,0.0,-999.0,82,-99.99,,,-99.99,,2013-01-31 05:22:00,
2013-01-30 23:32:00,18.0,13.0,29.71,West,276,0.0,-999.0,82,-99.99,,,-99.99,,2013-01-31 05:32:00,
2013-01-30 23:41:00,17.0,13.0,29.73,WSW,258,0.0,-999.0,83,-99.99,,,-99.99,,2013-01-31 05:41:00,
2013-01-30 23:52:00,17.0,13.0,29.73,WSW,258,0.0,-999.0,83,-99.99,,,-99.99,,2013-01-31 05:52:00,